This is the latest recevied weather packets stored in our database for station/object WB3EGK. If no packets are shown the sender has not sent any weather packets the latest 1 day(s).
| Time | Temp. | Humidity | Pressure | Rain* | Wind** | Luminosity | Snow |
|---|---|---|---|---|---|---|---|
| 1778062578 | 7.22° C | 1% | 1004.8 hPa | 3.05 mm | - | 0 W/m² | - |
| 1778061671 | 7.22° C | 1% | 1004.8 hPa | 1.78 mm | - | 0 W/m² | - |
| 1778061370 | 7.22° C | 1% | 1004.8 hPa | 1.27 mm | - | 0 W/m² | - |
| 1778061066 | 7.22° C | 1% | 1004.6 hPa | 1.27 mm | - | 0 W/m² | - |
| 1778060461 | 7.22° C | 1% | 1004.4 hPa | 1.78 mm | - | 0 W/m² | - |
| 1778059856 | 7.22° C | 1% | 1004.4 hPa | 3.05 mm | - | 0 W/m² | - |
| 1778059554 | 7.22° C | 1% | 1004.6 hPa | 4.83 mm | - | 0 W/m² | - |
| 1778058949 | 7.22° C | 1% | 1004.9 hPa | 3.05 mm | - | 0 W/m² | - |
| 1778058646 | 7.22° C | 1% | 1004.9 hPa | 3.05 mm | - | 0 W/m² | - |
| 1778057737 | 7.22° C | 1% | 1004.8 hPa | 3.05 mm | - | 0 W/m² | - |
| 1778057433 | 7.22° C | 1% | 1005.1 hPa | 4.83 mm | - | 0 W/m² | - |
| 1778056826 | 7.22° C | 1% | 1004.7 hPa | 4.83 mm | - | 0 W/m² | - |
| 1778056221 | 7.78° C | 1% | 1004.7 hPa | 4.32 mm | - | 0 W/m² | - |
| 1778055009 | 7.78° C | 1% | 1004.4 hPa | 6.1 mm | - | 0 W/m² | - |
| 1778054706 | 7.78° C | 1% | 1004.5 hPa | 6.1 mm | - | 0 W/m² | - |
| 1778054101 | 7.78° C | 1% | 1004.5 hPa | 3.05 mm | - | 0 W/m² | - |
| 1778053192 | 7.78° C | 1% | 1004.4 hPa | 3.05 mm | - | 0 W/m² | - |
| 1778052284 | 7.78° C | 1% | 1004.3 hPa | 1.78 mm | - | 0 W/m² | - |
| 1778051982 | 8.33° C | 1% | 1004.3 hPa | 1.27 mm | - | 0 W/m² | - |
| 1778051376 | 8.33° C | 1% | 1004.6 hPa | 3.05 mm | - | 0 W/m² | - |
| 1778051073 | 8.89° C | 1% | 1004.6 hPa | 1.27 mm | - | 0 W/m² | - |
| 1778050770 | 8.89° C | 1% | 1004.5 hPa | 1.78 mm | - | 0 W/m² | - |
| 1778050468 | 8.89° C | 1% | 1004.9 hPa | 3.56 mm | - | 0 W/m² | - |
| 1778050164 | 8.89° C | 1% | 1004.5 hPa | 1.78 mm | - | 0 W/m² | - |
| 1778049557 | 8.89° C | 1% | 1004.7 hPa | 3.05 mm | - | 0 W/m² | - |
* Rain latest hour (hover to see other rain measurements)
** Current wind speed in m/s (hover to see current wind gust speed)